Location: Township of Marena
(38.1747°N, 99.6798°W)
Time: 03:20:47
(UTC+00:00)

ATLAS 3B R/B - Pass Details

Date: 26 October 2020
Orbit: 1014 x 1181 km, 63.8° (Epoch: 23 November)

Event Time Altitude Azimuth Distance (km) Brightness Sun altitude
Exits shadow 11:23:39 10° 216° (SW) 2,770 4.5 -19.3°
Maximum altitude 11:30:08 79° 303° (WNW) 1,037 2.5 -18.1°
Drops below altitude 10° 11:36:47 10° 30° (NNE) 2,827 5.3 -16.8°
Sets 11:39:25 0° 32° (NNE) 3,798 6.0 -16.2°
